STARLINK-11185 [DTC] (62588 NORAD) Tracking and Keplerian Element Data

This shows tracking and keplerian element data for the satellite.

Feedback or suggestion? Click here.




ElementValue
Catalog62588
NameSTARLINK-11185 [DTC]
Epoch Orbit5359
Epoch Day354.06279081
Epoch Year2025
RAAN245.8948
Inclination43.0005
Eccentricity0.0003857
Argument of Perigee265.6549
Mean Anonmoly94.3878
Mean Motion15.70965554
Decay Rate0.00165391
L11 62588U 25008B 25354.06279081 .00165391 00000+0 12600-2 0 9991
L22 62588 43.0005 245.8948 0003857 265.6549 94.3878 15.70965554 53591



Live tracking and technical data element details for STARLINK-11185 [DTC] (NORAD 62588). STARLINK-11185 [DTC] can be tracked NOW for your location showing map with azimuth and elevation plus other details from your city location.







IsCatalogInMostPopularTable: catalog: 62588, numindb: 77
Update: records affected: 1



GetName: 62588 STARLINK-11185 [DTC]

Hit Count: updated at: Sat, 07 Feb 2026 08:14:24 GMT